OAS1541 LOWI-LSZS

Flight info

Callsign OAS1541
Flight time 0h 42m
Altitude 17000
Route BREN3J BRENO DCT EKPIS DCT LORLO DCT RONAG DCT PELAD DCT
Aircraft B350/L-SBGRW/S

Departure

Time 2026-05-07 20:49
Airport Innsbruck Airport (LOWI)

Arrival

Time 2026-05-07 21:32
Airport Engadin Airport (LSZS)
Time Latitude Longitude Altitude Speed Heading
2026-05-07 20:35 47.25882 11.35421 1895 ft 0 kts 265°
2026-05-07 20:36 47.25861 11.35424 1895 ft 0 kts 265°
2026-05-07 20:45 47.25865 11.35390 1886 ft 14 kts 287°
2026-05-07 20:45 47.25892 11.35215 1895 ft 18 kts 266°
2026-05-07 20:45 47.25874 11.35036 1892 ft 17 kts 258°
2026-05-07 20:46 47.25858 11.34884 1895 ft 14 kts 262°
2026-05-07 20:46 47.25844 11.34754 1895 ft 12 kts 258°
2026-05-07 20:46 47.25838 11.34637 1895 ft 10 kts 258°
2026-05-07 20:46 47.25821 11.34536 1886 ft 11 kts 259°
2026-05-07 20:47 47.25803 11.34381 1893 ft 24 kts 261°
2026-05-07 20:47 47.25784 11.34191 1895 ft 19 kts 261°
2026-05-07 20:47 47.25773 11.34001 1895 ft 18 kts 279°
2026-05-07 20:47 47.25824 11.33849 1895 ft 16 kts 305°
2026-05-07 20:48 47.25879 11.33737 1897 ft 12 kts 306°
2026-05-07 20:48 47.25933 11.33683 1902 ft 8 kts 34°
2026-05-07 20:48 47.25972 11.33948 1902 ft 64 kts 81°
2026-05-07 20:48 47.26080 11.34947 1901 ft 127 kts 81°
2026-05-07 20:49 47.26246 11.36398 2118 ft 155 kts 79°
2026-05-07 20:49 47.26492 11.38079 2398 ft 184 kts 79°
2026-05-07 20:49 47.26656 11.40025 2729 ft 198 kts 84°
2026-05-07 20:49 47.26826 11.42078 3073 ft 207 kts 82°
2026-05-07 20:50 47.27058 11.44212 3410 ft 213 kts 80°
2026-05-07 20:50 47.27508 11.46316 3743 ft 218 kts 68°
2026-05-07 20:50 47.28148 11.48360 4060 ft 222 kts 66°
2026-05-07 20:50 47.28739 11.50472 4373 ft 225 kts 68°
2026-05-07 20:51 47.29328 11.52613 4677 ft 227 kts 67°
2026-05-07 20:51 47.29938 11.54765 5018 ft 228 kts 67°
2026-05-07 20:51 47.30554 11.56932 5390 ft 230 kts 67°
2026-05-07 20:51 47.31171 11.59112 5751 ft 231 kts 68°
2026-05-07 20:52 47.31734 11.61335 6089 ft 233 kts 78°
2026-05-07 20:52 47.31725 11.63675 6438 ft 234 kts 104°
2026-05-07 20:52 47.31008 11.65810 6773 ft 235 kts 130°
2026-05-07 20:52 47.29728 11.67280 7106 ft 235 kts 156°
2026-05-07 20:53 47.28143 11.67796 7441 ft 236 kts 181°
2026-05-07 20:53 47.26551 11.67259 7780 ft 237 kts 207°
2026-05-07 20:53 47.25270 11.65770 8127 ft 236 kts 232°
2026-05-07 20:53 47.24548 11.63624 8476 ft 236 kts 257°
2026-05-07 20:54 47.24391 11.61232 8811 ft 238 kts 268°
2026-05-07 20:54 47.24327 11.58800 9165 ft 238 kts 266°
2026-05-07 20:54 47.24168 11.56358 9510 ft 240 kts 263°
2026-05-07 20:54 47.23960 11.53911 9855 ft 241 kts 263°
2026-05-07 20:55 47.23784 11.51452 10176 ft 242 kts 264°
2026-05-07 20:55 47.23643 11.48995 10494 ft 242 kts 265°
2026-05-07 20:55 47.23476 11.46522 10813 ft 243 kts 263°
2026-05-07 20:55 47.23247 11.44068 11130 ft 242 kts 256°
2026-05-07 20:56 47.22520 11.41855 11459 ft 242 kts 231°
2026-05-07 20:56 47.21224 11.40304 11796 ft 243 kts 207°
2026-05-07 20:56 47.19585 11.39671 12136 ft 246 kts 185°
2026-05-07 20:56 47.17866 11.39619 12470 ft 248 kts 182°
2026-05-07 20:57 47.16134 11.39519 12806 ft 251 kts 186°
2026-05-07 20:57 47.14389 11.39323 13155 ft 252 kts 186°
2026-05-07 20:57 47.12634 11.39128 13497 ft 254 kts 185°
2026-05-07 20:57 47.10872 11.38956 13846 ft 253 kts 185°
2026-05-07 20:58 47.09110 11.38784 14156 ft 255 kts 186°
2026-05-07 20:58 47.07345 11.38604 14467 ft 254 kts 186°
2026-05-07 20:58 47.05574 11.38428 14783 ft 255 kts 186°
2026-05-07 20:58 47.03800 11.38249 15104 ft 257 kts 186°
2026-05-07 20:59 47.02001 11.38067 15421 ft 259 kts 186°
2026-05-07 20:59 47.00199 11.37889 15738 ft 260 kts 186°
2026-05-07 20:59 46.98393 11.37704 16068 ft 260 kts 186°
2026-05-07 20:59 46.96592 11.37518 16405 ft 261 kts 187°
2026-05-07 21:00 46.94779 11.37313 16737 ft 261 kts 187°
2026-05-07 21:00 46.92965 11.37111 17071 ft 261 kts 187°
2026-05-07 21:00 46.91157 11.36915 17416 ft 261 kts 187°
2026-05-07 21:00 46.89347 11.36717 17757 ft 261 kts 187°
2026-05-07 21:01 46.87531 11.36518 18054 ft 263 kts 187°
2026-05-07 21:01 46.85669 11.36311 18052 ft 274 kts 187°
2026-05-07 21:01 46.83742 11.36100 18069 ft 283 kts 187°
2026-05-07 21:01 46.81769 11.35697 18065 ft 288 kts 199°
2026-05-07 21:02 46.79990 11.34383 18075 ft 288 kts 220°
2026-05-07 21:02 46.78650 11.32224 18072 ft 289 kts 239°
2026-05-07 21:02 46.77916 11.29496 18062 ft 292 kts 259°
2026-05-07 21:02 46.77750 11.26539 18064 ft 294 kts 268°
2026-05-07 21:03 46.77656 11.23588 18058 ft 295 kts 265°
2026-05-07 21:03 46.77413 11.20576 18055 ft 296 kts 261°
2026-05-07 21:03 46.77087 11.17603 18060 ft 297 kts 261°
2026-05-07 21:03 46.76805 11.14619 18064 ft 297 kts 262°
2026-05-07 21:04 46.76543 11.11626 18057 ft 298 kts 262°
2026-05-07 21:04 46.76269 11.08639 18056 ft 298 kts 262°
2026-05-07 21:04 46.75988 11.05648 18057 ft 298 kts 262°
2026-05-07 21:04 46.75709 11.02648 18066 ft 298 kts 262°
2026-05-07 21:05 46.75429 10.99646 18065 ft 299 kts 262°
2026-05-07 21:05 46.75151 10.96646 18066 ft 300 kts 262°
2026-05-07 21:05 46.74869 10.93675 18071 ft 299 kts 262°
2026-05-07 21:05 46.74588 10.90669 18068 ft 299 kts 262°
2026-05-07 21:06 46.74307 10.87670 18071 ft 299 kts 262°
2026-05-07 21:06 46.74020 10.84662 18071 ft 300 kts 262°
2026-05-07 21:06 46.73735 10.81653 18070 ft 300 kts 262°
2026-05-07 21:06 46.73449 10.78646 18067 ft 299 kts 262°
2026-05-07 21:07 46.73164 10.75645 18071 ft 298 kts 262°
2026-05-07 21:07 46.72875 10.72651 18079 ft 298 kts 262°
2026-05-07 21:07 46.72589 10.69662 18080 ft 299 kts 262°
2026-05-07 21:07 46.72529 10.66645 18085 ft 299 kts 277°
2026-05-07 21:08 46.72938 10.63666 18077 ft 300 kts 282°
2026-05-07 21:08 46.73397 10.60699 18073 ft 300 kts 281°
2026-05-07 21:08 46.73786 10.57719 18074 ft 300 kts 279°
2026-05-07 21:08 46.74162 10.54724 18076 ft 300 kts 280°
2026-05-07 21:09 46.74562 10.51735 18081 ft 301 kts 280°
2026-05-07 21:09 46.74962 10.48746 18069 ft 300 kts 280°
2026-05-07 21:09 46.75353 10.45758 18073 ft 300 kts 279°
2026-05-07 21:09 46.75744 10.42766 18074 ft 300 kts 280°
2026-05-07 21:10 46.76136 10.39781 18074 ft 300 kts 280°
2026-05-07 21:10 46.76527 10.36794 18076 ft 300 kts 280°
2026-05-07 21:10 46.76895 10.33978 18079 ft 299 kts 280°
2026-05-07 21:10 46.77256 10.31208 18076 ft 300 kts 279°
2026-05-07 21:11 46.77636 10.28213 18074 ft 300 kts 277°
2026-05-07 21:11 46.77608 10.25198 18081 ft 299 kts 258°
2026-05-07 21:11 46.75884 10.19723 18078 ft 298 kts 242°
2026-05-07 21:12 46.74929 10.17036 18084 ft 298 kts 245°
2026-05-07 21:12 46.74048 10.14307 18083 ft 298 kts 245°
2026-05-07 21:12 46.73148 10.11588 18075 ft 298 kts 244°
2026-05-07 21:12 46.72222 10.08878 18085 ft 299 kts 244°
2026-05-07 21:13 46.71297 10.06155 18074 ft 299 kts 244°
2026-05-07 21:13 46.70383 10.03446 18084 ft 298 kts 244°
2026-05-07 21:13 46.69469 10.00729 18079 ft 298 kts 244°
2026-05-07 21:13 46.68552 9.98025 18079 ft 298 kts 244°
2026-05-07 21:14 46.67635 9.95323 18084 ft 298 kts 244°
2026-05-07 21:14 46.66718 9.92619 18081 ft 299 kts 244°
2026-05-07 21:14 46.65797 9.89905 18081 ft 299 kts 244°
2026-05-07 21:14 46.64933 9.87366 18076 ft 299 kts 244°
2026-05-07 21:15 46.64094 9.84904 18051 ft 288 kts 244°
2026-05-07 21:15 46.63231 9.82370 17702 ft 271 kts 244°
2026-05-07 21:15 46.62409 9.79967 17242 ft 260 kts 244°
2026-05-07 21:15 46.61643 9.77721 16805 ft 252 kts 244°
2026-05-07 21:16 46.60873 9.75465 16350 ft 246 kts 244°
2026-05-07 21:16 46.60139 9.73256 15906 ft 239 kts 250°
2026-05-07 21:16 46.59857 9.70926 15489 ft 233 kts 270°
2026-05-07 21:16 46.59918 9.68590 15058 ft 230 kts 272°
2026-05-07 21:17 46.59967 9.66272 14641 ft 229 kts 270°
2026-05-07 21:17 46.59991 9.63963 14223 ft 228 kts 270°
2026-05-07 21:17 46.60012 9.61696 13815 ft 227 kts 270°
2026-05-07 21:17 46.60037 9.59405 13354 ft 226 kts 270°
2026-05-07 21:18 46.60062 9.57104 12989 ft 221 kts 270°
2026-05-07 21:18 46.60084 9.54854 12985 ft 232 kts 270°
2026-05-07 21:18 46.60103 9.52422 12986 ft 242 kts 268°
2026-05-07 21:18 46.59728 9.50046 12992 ft 249 kts 245°
2026-05-07 21:19 46.58682 9.48007 12989 ft 257 kts 222°
2026-05-07 21:19 46.57673 9.47017 12984 ft 262 kts 207°
2026-05-07 21:19 46.55315 9.46325 12989 ft 267 kts 178°
2026-05-07 21:19 46.54078 9.46661 12987 ft 269 kts 163°
2026-05-07 21:20 46.51981 9.48307 12976 ft 250 kts 149°
2026-05-07 21:20 46.50993 9.49182 12980 ft 242 kts 153°
2026-05-07 21:20 46.49488 9.50118 12981 ft 230 kts 164°
2026-05-07 21:20 46.47972 9.50739 12969 ft 221 kts 167°
2026-05-07 21:21 46.46541 9.51336 12906 ft 207 kts 165°
2026-05-07 21:21 46.45218 9.51939 12776 ft 191 kts 165°
2026-05-07 21:21 46.43972 9.52505 12593 ft 186 kts 165°
2026-05-07 21:21 46.42742 9.53063 12377 ft 180 kts 165°
2026-05-07 21:22 46.41578 9.53589 12371 ft 171 kts 165°
2026-05-07 21:22 46.40471 9.54085 12369 ft 162 kts 165°
2026-05-07 21:22 46.39415 9.54560 12307 ft 159 kts 165°
2026-05-07 21:22 46.38370 9.55030 12306 ft 153 kts 165°
2026-05-07 21:23 46.37328 9.55496 12314 ft 163 kts 165°
2026-05-07 21:23 46.36215 9.55996 12317 ft 172 kts 165°
2026-05-07 21:23 46.35043 9.56520 12318 ft 180 kts 165°
2026-05-07 21:23 46.33903 9.57349 12206 ft 194 kts 139°
2026-05-07 21:24 46.33128 9.59010 11981 ft 206 kts 109°
2026-05-07 21:24 46.33006 9.61047 11754 ft 204 kts 79°
2026-05-07 21:24 46.33577 9.62839 11688 ft 191 kts 50°
2026-05-07 21:24 46.34403 9.64266 11685 ft 179 kts 56°
2026-05-07 21:25 46.34938 9.65804 11692 ft 166 kts 68°
2026-05-07 21:25 46.35354 9.67338 11689 ft 161 kts 69°
2026-05-07 21:25 46.35811 9.68792 11704 ft 159 kts 53°
2026-05-07 21:25 46.36629 9.69845 11556 ft 160 kts 34°
2026-05-07 21:26 46.37552 9.70829 11303 ft 168 kts 37°
2026-05-07 21:26 46.38429 9.71825 11289 ft 150 kts 38°
2026-05-07 21:26 46.39177 9.72687 11200 ft 127 kts 38°
2026-05-07 21:26 46.39909 9.73541 10650 ft 141 kts 38°
2026-05-07 21:27 46.40614 9.74448 10387 ft 131 kts 44°
2026-05-07 21:27 46.41266 9.75336 10107 ft 126 kts 44°
2026-05-07 21:27 46.41933 9.76137 9747 ft 124 kts 38°
2026-05-07 21:27 46.42602 9.76906 9436 ft 121 kts 39°
2026-05-07 21:28 46.43279 9.77647 9069 ft 122 kts 37°
2026-05-07 21:28 46.43995 9.78303 8691 ft 124 kts 32°
2026-05-07 21:28 46.44707 9.78975 8449 ft 120 kts 36°
2026-05-07 21:28 46.45366 9.79720 8093 ft 124 kts 33°
2026-05-07 21:29 46.46048 9.80497 7846 ft 122 kts 41°
2026-05-07 21:29 46.46697 9.81279 7684 ft 121 kts 41°
2026-05-07 21:29 46.47324 9.82102 7510 ft 123 kts 44°
2026-05-07 21:29 46.47946 9.82947 7357 ft 123 kts 43°
2026-05-07 21:30 46.48565 9.83783 7189 ft 119 kts 45°
2026-05-07 21:30 46.49171 9.84613 6973 ft 119 kts 43°
2026-05-07 21:30 46.49785 9.85394 6789 ft 116 kts 36°
2026-05-07 21:30 46.50465 9.86004 6522 ft 113 kts 33°
2026-05-07 21:31 46.51149 9.86574 6205 ft 115 kts 26°
2026-05-07 21:31 46.51862 9.87143 5970 ft 118 kts 31°
2026-05-07 21:31 46.52589 9.87706 5682 ft 119 kts 28°
2026-05-07 21:31 46.53276 9.88265 5602 ft 101 kts 29°
2026-05-07 21:32 46.53689 9.88603 5600 ft 43 kts 29°
2026-05-07 21:32 46.53820 9.88703 5605 ft 6 kts 358°
2026-05-07 21:32 46.53830 9.88718 5601 ft 8 kts 180°
2026-05-07 21:32 46.53713 9.88630 5601 ft 22 kts 210°
2026-05-07 21:33 46.53586 9.88524 5602 ft 19 kts 210°
2026-05-07 21:33 46.53476 9.88439 5608 ft 17 kts 208°
2026-05-07 21:33 46.53383 9.88361 5604 ft 14 kts 210°
2026-05-07 21:33 46.53301 9.88294 5609 ft 14 kts 209°
2026-05-07 21:34 46.53211 9.88221 5604 ft 16 kts 210°
2026-05-07 21:34 46.53112 9.88141 5604 ft 16 kts 208°
2026-05-07 21:34 46.53013 9.88060 5602 ft 16 kts 210°
2026-05-07 21:34 46.52982 9.87995 5598 ft 5 kts 295°
2026-05-07 21:35 46.52999 9.87955 5601 ft 5 kts 302°
2026-05-07 21:35 46.53034 9.87932 5600 ft 8 kts 27°
2026-05-07 21:35 46.53075 9.87956 5600 ft 2 kts 329°
2026-05-07 21:35 46.53087 9.87935 5605 ft 4 kts 295°
2026-05-07 21:36 46.53091 9.87923 5602 ft 0 kts 297°